FW3322 Weather Reports


Display with metric or nautical units.
time (UTC)temp
F
wind
direction
speed
MPH
gust
MPH
rain 1hr
in
rain 24hr
in
rain mn
in
humidity
%
barometer
mb
20260905103035 0 0.0 0.0 0.00 0.00 0.00 1013.2
20260905101529 72 137 0.0 0.0 0.00 0.00 0.00 91 1013.1
20260905100029 73 137 0.0 0.0 0.00 0.00 0.00 92 1013.1
20260905094527 73 136 0.0 0.0 0.00 0.00 0.00 91 1013.1
20260905093029 74 136 0.0 0.0 0.00 0.00 0.00 90 1013.1
20260905091524 74 136 0.0 0.0 0.00 0.00 0.00 90 1013.0
20260905090023 74 136 0.0 0.0 0.00 0.00 0.00 89 1013.0
20260905084521 74 136 0.0 0.0 0.00 0.00 0.00 89 1012.8
20260905083021 74 136 0.0 0.0 0.00 0.00 0.00 89 1012.8
20260905081520 75 136 0.0 0.0 0.00 0.00 0.00 89 1012.7
20260905080021 75 136 0.0 0.0 0.00 0.00 0.00 88 1012.7
20260905074518 76 137 0.0 0.0 0.00 0.00 0.00 88 1012.8
20260905073019 76 136 0.0 0.0 0.00 0.00 0.00 87 1012.8
20260905071514 76 136 0.0 0.0 0.00 0.00 0.00 87 1012.8
20260905070013 77 136 0.0 0.0 0.00 0.00 0.00 86 1012.9
20260905064513 77 136 0.0 0.0 0.00 0.00 0.00 86 1013.0
20260905063011 76 136 0.0 0.0 0.00 0.00 0.00 86 1013.1
20260905061510 76 137 0.0 0.0 0.00 0.00 0.00 87 1013.3
20260905060013 77 209 0.0 0.0 0.00 0.00 0.00 85 1013.2
20260905054506 78 209 0.0 0.0 0.00 0.00 0.00 86 1013.0
20260905053005 78 209 0.0 0.0 0.00 0.00 0.00 85 1013.1
20260905051504 77 209 0.0 0.0 0.00 0.00 0.00 85 1013.0
20260905050003 77 164 0.0 0.0 0.00 0.00 0.00 85 1013.0
20260905044602 78 219 0.0 0.0 0.00 0.00 0.00 85 1013.0
20260905043100 79 219 0.0 0.0 0.00 0.00 0.00 83 1013.0
20260905041602 79 219 0.0 0.0 0.00 0.00 0.00 81 1012.9
20260905040059 79 219 0.0 0.0 0.00 0.00 0.00 81 1012.9
20260905034611 80 219 0.0 0.0 0.00 0.00 0.00 81 1012.9
20260905033107 80 219 0.0 0.0 0.00 0.00 0.00 80 1012.9
20260905031613 81 219 0.0 0.0 0.00 0.00 0.00 78 1012.7
20260905030057 82 219 0.0 0.0 0.00 0.00 0.00 77 1012.6
20260905024556 82 219 0.0 0.0 0.00 0.00 0.00 75 1012.4
20260905023125 83 219 0.0 0.0 0.00 0.00 0.00 74 1012.2
20260905021555 84 219 0.0 0.0 0.00 0.00 0.00 72 1011.9
20260905020055 84 219 0.0 0.0 0.00 0.00 0.00 72 1011.7
20260905014555 86 219 0.0 0.0 0.00 0.00 0.00 70 1011.5
20260905013053 87 219 0.0 0.0 0.00 0.00 0.00 67 1011.4
20260905011558 89 219 0.0 0.0 0.00 0.00 0.00 64 1011.2
20260905010053 90 219 0.0 0.0 0.00 0.00 0.00 63 1011.1
20260905004552 93 222 0.0 1.0 0.00 0.00 0.00 61 1011.2
20260905003051 96 219 0.0 0.0 0.00 0.00 0.00 54 1011.1
20260905001550 98 220 0.0 0.0 0.00 0.00 0.00 51 1011.1
20260904234548 100 215 0.0 6.0 0.00 0.00 0.00 49 1011.1
20260904233049 100 141 0.0 2.0 0.00 0.00 0.00 49 1011.1
20260904231545 100 140 1.0 5.0 0.00 0.00 0.00 48 1011.2
20260904230043 100 181 3.0 6.0 0.00 0.00 0.00 48 1011.2
20260904224542 101 135 1.0 6.0 0.00 0.00 0.00 49 1011.3
20260904223038 101 130 2.0 7.0 0.00 0.00 0.00 47 1011.2
20260904221535 99 128 4.0 10.0 0.00 0.00 0.00 49 1011.2
20260904214531 99 226 4.0 10.0 0.00 0.00 0.00 49 1011.5
20260904213034 99 134 4.0 11.0 0.00 0.00 0.00 50 1011.5
20260904211526 100 125 5.0 10.0 0.00 0.00 0.00 49 1011.7
20260904210033 99 150 3.0 13.0 0.00 0.00 0.00 50 1011.9
20260904204521 99 130 3.0 12.0 0.00 0.00 0.00 50 1012.0
20260904203022 100 136 3.0 8.0 0.00 0.00 0.00 49 1012.1
20260904201515 99 128 2.0 9.0 0.00 0.00 0.00 50 1012.3
20260904200019 98 131 6.0 15.0 0.00 0.00 0.00 51 1012.5
20260904194539 98 245 3.0 9.0 0.00 0.00 0.00 48 1012.7
20260904193012 98 150 9.0 18.0 0.00 0.00 0.00 49 1012.8
20260904191516 98 183 4.0 11.0 0.00 0.00 0.00 52 1012.8
20260904190008 99 141 7.0 12.0 0.00 0.00 0.00 49 1013.2
20260904184504 97 201 5.0 13.0 0.00 0.00 0.00 53 1013.3
20260904183002 97 342 2.0 9.0 0.00 0.00 0.00 54 1013.4
20260904181502 97 135 4.0 9.0 0.00 0.00 0.00 54 1013.6
20260904180117 96 133 5.0 12.0 0.00 0.00 0.00 53 1013.8
20260904174610 97 192 5.0 12.0 0.00 0.00 0.00 53 1013.9
20260904173059 95 213 6.0 12.0 0.00 0.00 0.00 57 1014.1
20260904171551 94 238 1.0 12.0 0.00 0.00 0.00 58 1014.3
20260904170050 93 150 6.0 13.0 0.00 0.00 0.00 59 1014.4
20260904164549 93 178 6.0 10.0 0.00 0.00 0.00 60 1014.5
20260904163052 92 163 4.0 11.0 0.00 0.00 0.00 62 1014.6
20260904161542 91 142 2.0 10.0 0.00 0.00 0.00 64 1014.7
20260904160040 91 142 4.0 9.0 0.00 0.00 0.00 65 1014.7
20260904154539 90 162 3.0 6.0 0.00 0.00 0.00 66 1014.7
20260904153043 89 141 3.0 8.0 0.00 0.00 0.00 67 1014.9
20260904151533 88 231 1.0 8.0 0.00 0.00 0.00 68 1014.9
20260904150029 87 158 2.0 9.0 0.00 0.00 0.00 70 1014.9
20260904144528 87 171 4.0 9.0 0.00 0.00 0.00 70 1014.9
20260904143025 86 59 0.0 7.0 0.00 0.00 0.00 71 1015.1
20260904141521 85 147 1.0 7.0 0.00 0.00 0.00 72 1014.9
20260904140019 84 160 0.0 5.0 0.00 0.00 0.00 73 1015.0
20260904134514 83 175 0.0 5.0 0.00 0.00 0.00 74 1014.9
20260904133010 81 136 1.0 7.0 0.00 0.00 0.00 76 1014.9
20260904131507 80 138 2.0 4.0 0.00 0.00 0.00 79 1014.8
20260904130004 77 135 0.0 1.0 0.00 0.00 0.00 83 1014.7
20260904124503 75 138 2.0 2.0 0.00 0.00 0.00 86 1014.6
20260904123114 0 0.0 0.0 0.00 0.00 0.00 1014.6
20260904121559 0 0.0 0.0 0.00 0.00 0.00 1014.5
20260904120050 0 0.0 0.0 0.00 0.00 0.00 1014.4
20260904114546 0 0.0 0.0 0.00 0.00 0.00 1014.4
20260904113052 0 0.0 0.0 0.00 0.00 0.00 1014.2
20260904111537 0 0.0 0.0 0.00 0.00 0.00 1014.0
20260904110038 0 0.0 0.0 0.00 0.00 0.00 1013.9
20260904104529 0 0.0 0.0 0.00 0.00 0.00 1013.7